La Grande, OR

10:12 PM PDT on October 23, 2019 (GMT -0700)
La Grande-Union County

Weather History for KLGD - August, 2019

Change the Weather History Date:

Sunday, August 4, 2019

  Actual Average Record
Temperature  
Mean Temperature 74 °F -  
Max Temperature 95 °F 84 °F 104 °F (1978)
Min Temperature 53 °F 49 °F 40 °F (1980)
Cooling Degree Days 9    
Growing Degree Days 24 (Base 50)    
Moisture  
Dew Point 50 °F    
Average Humidity 45    
Maximum Humidity 77    
Minimum Humidity 19    
Precipitation  
Precipitation 0.05 in - - ()
Sea Level Pressure  
Sea Level Pressure 30.40 in    
Wind  
Wind Speed 6 mph (NW)    
Max Wind Speed 16 mph    
Max Gust Speed 16 mph    
Visibility 10 miles    
Events Rain , Thunderstorm    
Averages and records for this station are not official NWS values.
T = Trace of Precipitation, MM = Missing Value Source: NWS Daily Summary

Daily Weather History Graph

Daily Weather History Graph

Search for Another Location

Airport or City:

Astronomy

Aug. 04, 2019 Rise Set
Actual Time 5:39 AM PDT 8:15 PM PDT
Civil Twilight 5:06 AM PDT 8:49 PM PDT
Nautical Twilight 4:24 AM PDT 9:31 PM PDT
Astronomical Twilight 3:35 AM PDT 10:19 PM PDT
Moon 10:01 AM PDT (8/4) 10:45 PM PDT (8/4)
Length of Visible Light 15h 42m
Length of Day
14h 35m
Waxing Crescent, 19% of the Moon is Illuminated
Aug 4
Waxing Crescent
Aug 7
First Quarter
Aug 15
Full
Aug 23
Last Quarter
Aug 30
New

Hourly Weather History & Observations

Time (PDT) Temp. Dew Point Humidity Pressure Visibility Wind Dir Wind Speed Gust Speed Precip Events Conditions
12:56 AM 64.9 °F 48.9 °F 56% 30.44 in 10.0 mi WNW 6.9 mph - N/A   Clear
1:56 AM 61.0 °F 48.0 °F 62% 30.45 in 10.0 mi Calm Calm - N/A   Clear
2:56 AM 60.1 °F 48.0 °F 64% 30.45 in 10.0 mi West 3.5 mph - N/A   Clear
3:56 AM 60.1 °F 48.0 °F 64% 30.45 in 10.0 mi NW 5.8 mph - N/A   Clear
4:56 AM 55.9 °F 48.0 °F 75% 30.46 in 10.0 mi Calm Calm - N/A   Clear
5:56 AM 53.1 °F 46.0 °F 77% 30.47 in 10.0 mi SSW 3.5 mph - N/A   Clear
6:56 AM 55.9 °F 48.0 °F 75% 30.48 in 10.0 mi Calm Calm - N/A   Clear
7:56 AM 62.1 °F 48.9 °F 62% 30.48 in 10.0 mi Calm Calm - N/A   Clear
8:56 AM 69.1 °F 50.0 °F 51% 30.48 in 10.0 mi Calm Calm - N/A   Clear
9:56 AM 75.9 °F 48.9 °F 38% 30.45 in 10.0 mi NNW 5.8 mph - N/A   Unknown
10:56 AM 81.0 °F 51.1 °F 35% 30.45 in 10.0 mi North 9.2 mph - N/A   Unknown
11:56 AM 84.9 °F 52.0 °F 32% 30.43 in 10.0 mi North 5.8 mph - N/A   Unknown
12:56 PM 89.1 °F 51.1 °F 27% 30.41 in 10.0 mi NNW 6.9 mph - N/A   Unknown
1:56 PM 91.9 °F 48.0 °F 22% 30.39 in 10.0 mi North 9.2 mph - N/A   Unknown
2:56 PM 93.9 °F 50.0 °F 22% 30.38 in 10.0 mi WNW 12.7 mph 16.1 mph N/A   Unknown
3:56 PM 95.0 °F 46.9 °F 19% 30.36 in 10.0 mi West 15.0 mph - N/A   Unknown
4:56 PM 93.9 °F 46.9 °F 20% 30.37 in 10.0 mi West 16.1 mph - N/A   Unknown
5:56 PM 77.0 °F 57.0 °F 50% 30.40 in 5.0 mi WNW 3.5 mph - 0.05 in Rain Light Rain
6:07 PM 78.8 °F 59.0 °F 51% 29.99 in 10.0 mi NW 9.2 mph - 0.00 in Rain , Thunderstorm Light Thunderstorms and Rain
6:42 PM 78.8 °F 53.6 °F 42% 29.99 in 10.0 mi WNW 12.7 mph - 0.00 in   Unknown
6:56 PM 79.0 °F 53.1 °F 40% 30.39 in 10.0 mi WNW 10.4 mph - 0.00 in   Unknown
7:56 PM 78.1 °F 50.0 °F 37% 30.41 in 10.0 mi NW 9.2 mph - N/A   Unknown
8:56 PM 73.0 °F 50.0 °F 44% 30.41 in 10.0 mi North 10.4 mph - N/A   Unknown
9:56 PM 72.0 °F 51.1 °F 48% 30.42 in 10.0 mi NNW 13.8 mph - N/A   Unknown
10:56 PM 75.0 °F 45.0 °F 34% 30.44 in 10.0 mi NW 15.0 mph - N/A   Unknown
11:56 PM 75.9 °F 43.0 °F 31% 30.44 in 10.0 mi NW 11.5 mph - N/A   Unknown